Regional Weather Roundup
Issued by NWS

Home | Current Version | Previous Version | Text Only | Print | Product List | Glossary On
Versions: 1 2 3 4 5 6 7 8 9 10 11 12 13 14 15 16 17 18 19 20 21 22 23 24 25 26 27 28 29 30 31 32 33 34 35 36 37 38 39 40 41 42 43 44 45 46 47 48 49 50
000
ASUS45 KCYS 221710
RWRWY

WYOMING REGIONAL WEATHER ROUNDUP
NATIONAL WEATHER SERVICE CHEYENNE WY
1100 AM MDT MON SEP 22 2014

NOTE:  "FAIR" INDICATES FEW OR NO CLOUDS BELOW 12,000 FEET
WITH NO SIGNIFICANT WEATHER AND/OR OBSTRUCTIONS TO VISIBILITY.

WYZ001-221800-
YELLOWSTONE NATIONAL PARK

CITY           SKY/WX    TMP DP  RH WIND       PRES   REMARKS
LK YELLOWSTONE   N/A     53  46  77 VRB7      30.28F
W YELLOWSTONE  NOT AVBL

$$
WYZ002>013-054>058-071-098>099-221800-
NORTHERN WYOMING

CITY           SKY/WX    TMP DP  RH WIND       PRES   REMARKS
JACKSON        CLOUDY    52  52 100 SW7       30.24S
CODY           MOSUNNY   70  45  40 W14G26    30.06F
GREYBULL       MOSUNNY   72  52  49 SE3       30.01S
WORLAND        PTSUNNY   69  49  48 SW3       30.03S
SHERIDAN       SUNNY     71  47  42 NE3       29.98F
BUFFALO        MOSUNNY   68  49  50 CALM      30.03S
GILLETTE       MOSUNNY   68  46  45 S14       30.02F
HULETT         FAIR      75  43  31 MISG      30.04
NEWCASTLE      FAIR      68  41  37 S5        30.07

$$
WYZ014>020-022>026-101>103-221800-
CENTRAL WYOMING

CITY           SKY/WX    TMP DP  RH WIND       PRES   REMARKS
BIG PINEY      CLOUDY    53  47  79 S5        30.29R
PINEDALE       LGT RAIN  50  46  87 CALM      30.30R
DUBOIS         PTSUNNY   57  41  54 W15G22    30.22S
LANDER         LGT RAIN  59  51  75 NW6       30.13S
RIVERTON       PTSUNNY   66  44  45 W9        30.13S
CASPER         PTSUNNY   67  47  48 SW21G30   30.11F
DOUGLAS        MOSUNNY   70  45  40 N5        30.11F

$$
WYZ021-027>030-104>119-221800-
SOUTHERN WYOMING

CITY           SKY/WX    TMP DP  RH WIND       PRES   REMARKS
EVANSTON       SUNNY     58  49  72 SW13G20   30.29F
KEMMERER       PTSUNNY   54  50  87 W7        30.30S
FORT BRIDGER   FAIR      58  51  75 SW5       30.32S
ROCK SPRINGS   CLOUDY    52  51  97 W7        30.29S
DIXON          PTSUNNY   55  51  87 E7        30.32F
RAWLINS        CLOUDY    57  44  62 SW16      30.25F
SARATOGA       LGT RAIN  52  46  82 S12       30.33R
LARAMIE        MOSUNNY   67  43  41 SW16      30.25F
CHEYENNE       MOSUNNY   69  53  56 S12       30.21S
TORRINGTON     CLOUDY    62  50  64 SE7       30.10F
PINE BLUFFS    LGT RAIN  59  54  82 S8        30.18F

$$



USA.gov is the U.S. government's official web portal to all federal, state and local government web resources and services.